TimePST,TemperatureF,Dew PointF,Humidity,Sea Level PressureIn,VisibilityMPH,Wind Direction,Wind SpeedMPH,Gust SpeedMPH,PrecipitationIn,Events,Conditions,WindDirDegrees,DateUTC
12:15 AM,26.6,23.0,86,30.20,10.0,Calm,Calm,-,N/A,,Clear,0,2012-12-09 08:15:00
12:35 AM,24.8,23.0,93,30.20,10.0,Calm,Calm,-,N/A,,Clear,0,2012-12-09 08:35:00
12:55 AM,26.6,23.0,86,30.21,10.0,NNW,3.5,-,N/A,,Clear,330,2012-12-09 08:55:00
1:15 AM,24.8,23.0,93,30.21,10.0,Calm,Calm,-,N/A,,Clear,0,2012-12-09 09:15:00
1:35 AM,23.0,21.2,93,30.20,10.0,Calm,Calm,-,N/A,,Clear,0,2012-12-09 09:35:00
1:55 AM,24.8,23.0,93,30.20,10.0,Calm,Calm,-,N/A,,Clear,0,2012-12-09 09:55:00
2:15 AM,24.8,23.0,93,30.22,10.0,Calm,Calm,-,N/A,,Clear,0,2012-12-09 10:15:00
2:35 AM,23.0,21.2,93,30.22,10.0,SW,4.6,-,N/A,,Clear,220,2012-12-09 10:35:00
2:55 AM,23.0,23.0,100,30.21,10.0,Calm,Calm,-,N/A,,Clear,0,2012-12-09 10:55:00
3:15 AM,23.0,21.2,93,30.22,10.0,ENE,3.5,-,N/A,,Clear,70,2012-12-09 11:15:00
3:35 AM,23.0,23.0,100,30.23,10.0,Calm,Calm,-,N/A,,Clear,0,2012-12-09 11:35:00
3:55 AM,24.8,23.0,93,30.23,10.0,Calm,Calm,-,N/A,,Clear,0,2012-12-09 11:55:00
4:15 AM,23.0,21.2,93,30.23,10.0,Calm,Calm,-,N/A,,Clear,0,2012-12-09 12:15:00
4:35 AM,24.8,23.0,93,30.24,10.0,Calm,Calm,-,N/A,,Clear,0,2012-12-09 12:35:00
4:55 AM,23.0,21.2,93,30.25,10.0,Calm,Calm,-,N/A,,Clear,0,2012-12-09 12:55:00
5:15 AM,23.0,21.2,93,30.25,10.0,Calm,Calm,-,N/A,,Clear,0,2012-12-09 13:15:00
5:35 AM,23.0,21.2,93,30.25,10.0,SSW,3.5,-,N/A,,Clear,210,2012-12-09 13:35:00
7:45 AM,21.2,19.4,93,30.28,10.0,Calm,Calm,-,N/A,,Scattered Clouds,0,2012-12-09 15:45:00
7:55 AM,19.4,19.4,100,30.28,10.0,Calm,Calm,-,N/A,,Scattered Clouds,0,2012-12-09 15:55:00
8:55 AM,26.6,24.8,93,30.31,10.0,Calm,Calm,-,N/A,,Mostly Cloudy,0,2012-12-09 16:55:00
9:45 AM,30.2,24.8,80,30.33,10.0,Calm,Calm,-,N/A,,Scattered Clouds,0,2012-12-09 17:45:00
10:55 AM,35.6,24.8,65,30.32,10.0,Calm,Calm,-,N/A,,Scattered Clouds,0,2012-12-09 18:55:00
11:50 AM,39.2,24.8,56,30.31,10.0,North,3.5,-,N/A,,Scattered Clouds,10,2012-12-09 19:50:00
12:45 PM,44.6,24.8,46,30.28,10.0,NE,9.2,-,N/A,,Clear,40,2012-12-09 20:45:00
1:55 PM,44.6,23.0,43,30.27,10.0,North,4.6,-,N/A,,Scattered Clouds,10,2012-12-09 21:55:00
2:50 PM,44.6,23.0,43,30.28,10.0,North,6.9,-,N/A,,Scattered Clouds,10,2012-12-09 22:50:00
3:50 PM,39.2,23.0,52,30.30,10.0,North,9.2,-,N/A,,Partly Cloudy,10,2012-12-09 23:50:00
4:50 PM,35.6,23.0,60,30.31,10.0,North,4.6,-,N/A,,Partly Cloudy,350,2012-12-10 00:50:00
4:55 PM,35.6,23.0,60,30.31,10.0,NNE,3.5,-,N/A,,Clear,20,2012-12-10 00:55:00
5:15 PM,32.0,23.0,69,30.32,10.0,Calm,Calm,-,N/A,,Clear,0,2012-12-10 01:15:00
5:35 PM,32.0,23.0,69,30.33,10.0,Calm,Calm,-,N/A,,Clear,0,2012-12-10 01:35:00
5:55 PM,32.0,23.0,69,30.33,10.0,South,3.5,-,N/A,,Clear,190,2012-12-10 01:55:00
6:15 PM,28.4,23.0,80,30.33,10.0,SSE,4.6,-,N/A,,Clear,150,2012-12-10 02:15:00
6:35 PM,30.2,23.0,75,30.34,10.0,Calm,Calm,-,N/A,,Clear,0,2012-12-10 02:35:00
6:55 PM,28.4,23.0,80,30.35,10.0,South,4.6,-,N/A,,Clear,190,2012-12-10 02:55:00
7:15 PM,26.6,23.0,86,30.36,10.0,Calm,Calm,-,N/A,,Clear,0,2012-12-10 03:15:00
7:35 PM,26.6,23.0,86,30.36,10.0,Calm,Calm,-,N/A,,Clear,0,2012-12-10 03:35:00
7:55 PM,26.6,23.0,86,30.37,10.0,South,3.5,-,N/A,,Clear,180,2012-12-10 03:55:00
8:15 PM,24.8,23.0,93,30.38,10.0,Calm,Calm,-,N/A,,Clear,0,2012-12-10 04:15:00
8:35 PM,26.6,23.0,86,30.38,10.0,SSE,3.5,-,N/A,,Clear,150,2012-12-10 04:35:00
8:55 PM,24.8,21.2,86,30.37,10.0,Calm,Calm,-,N/A,,Clear,0,2012-12-10 04:55:00
9:15 PM,26.6,23.0,86,30.38,10.0,North,4.6,-,N/A,,Clear,350,2012-12-10 05:15:00
9:35 PM,26.6,23.0,86,30.39,10.0,Calm,Calm,-,N/A,,Clear,0,2012-12-10 05:35:00
9:55 PM,24.8,23.0,93,30.39,10.0,Calm,Calm,-,N/A,,Clear,0,2012-12-10 05:55:00
10:15 PM,24.8,23.0,93,30.38,10.0,Calm,Calm,-,N/A,,Clear,0,2012-12-10 06:15:00
10:35 PM,24.8,21.2,86,30.38,10.0,Calm,Calm,-,N/A,,Clear,0,2012-12-10 06:35:00
10:55 PM,23.0,19.4,86,30.39,10.0,South,3.5,-,N/A,,Clear,170,2012-12-10 06:55:00
11:15 PM,23.0,21.2,93,30.39,10.0,Calm,Calm,-,N/A,,Clear,0,2012-12-10 07:15:00
11:35 PM,24.8,23.0,93,30.39,10.0,Calm,Calm,-,N/A,,Clear,0,2012-12-10 07:35:00
11:55 PM,24.8,23.0,93,30.39,10.0,Calm,Calm,-,N/A,,Clear,0,2012-12-10 07:55:00